Showing default

BEIDOU 11, 38091

Orbit data source: Space-Track

BEIDOU 11, 38091 is a payload satellite owned by CNSA (CN) in GEO that was launched on Fri, 24 Feb 2012 UTC via a CHANG ZHENG 3C launch vehicle from the Xichang Space Center, China (XSC). Payload-class satellites include a variety of spacecraft equipped with specific instruments for various scientific and technological missions. These include communications satellites like Starlink; space stations such as the ISS; scientific satellites like the Hubble; Earth observation satellites from companies like Planet Labs, Umbra, and HawkEye 360; GPS; miniature CubeSats for education and research; and military/defense satellites.

Not visible in the next 10 days
Identifier
38091, 2012-008A
Orbit
GEO
Country
Flag of CNCN / PRC
Related business
Manufacturer
CAST
Mission
Operational Defense Navigation
Bus & Motor
DFH-3B, FY-25
Mass
3,060 kg wet, 1,700 kg dry
Launch date (UTC)
2012-02-24 (14 years ago)
Launch vehicle
CHANG ZHENG 3C
Launch site
Xichang Space Center, China (XSC)
Object type
Payload
Rocket body
Debris
Shape & HBR
Box + 2 Pan, 9.0 m
Radar Cross Section
13.998 m², Large (>1 m²)

Expand to show TLE details & history
Last TLE update: 20 hours ago

TLE from 20 hours ago
0 BEIDOU 11
1 38091U 12008A   25261.16548725  .00000038  00000-0  00000-0 0  9997
2 38091   2.8913  70.9952 0007416 223.6983 180.9927  1.00268039 49647
Epoch: 2025-09-18T03:58Z
TLE epoch observation values (Epoch: 2025-09-18T03:58:18.098Z)
Latitude
2.01679°
Longitude
58.73924°
Altitude
35,818.116 km
Speed
3.072 km/s
True Right ascension
07h 42m 34s
True Declination
2° 00' 53"
Sunlit
Object was in daylight at epoch
Visualization orbit readout
Latitude
Unknown
Longitude
Unknown
Altitude
Unknown
Speed
Unknown
Apparent Right ascension
Unknown
Apparent Declination
Unknown
Sunlit
N/A
Visualization observer readout
Local Sidereal Time
16:22:51
Azimuth
Unknown
Elevation
Unknown
Doppler factor
Unknown
Orbital elements
Apogee altitude
35,819.982 km
Perigee altitude
35,757.441 km
Semi-major axis
42,166.849 km
Eccentricity
0.00074
Inclination
2.8913°
RAAN
70.9952°
Arg. of periapsis
223.6983°
True anomaly
180.99123°
Mean anomaly
180.9927°
Eccentric anomaly
180.99196°
Mean motion
0.25066 °/min
Orbital period
1,436.2 mins
BSTAR
0
Loading maneuver chart data...
Computing Atmospheric mass density...
Loading historical data...
Loading historical data...
Loading historical data...
Loading historical data...
Loading historical data...
Loading historical data...
Loading historical data...

Documentation

Showing up to 5 results
|